Location: Kresge Environmental Education Center
(43.1138°N, 83.2433°W)
Time: 01:17:59
(UTC-04:00)

Daily predictions for brighter satellites

Satellite Brightness Start Highest point End
(mag) Time Altitude Azimuth Time Altitude Azimuth Time Altitude Azimuth
Cosmos 2123 Rocket 4.2 00:02:59 10° NNW 00:08:49 67° WNW 00:08:49 67° WNW
H-2A R/B 4.4 00:12:14 19° NNE 00:12:14 19° NNE 00:14:01 10° N
Lacrosse 5 3.2 00:09:40 10° NW 00:13:24 36° N 00:13:24 36° N
CZ-2C R/B 3.5 00:13:09 10° NNE 00:16:48 45° NNE 00:16:48 45° NNE
CZ-4C R/B 3.3 00:26:51 39° NNE 00:26:51 39° NNE 00:30:42 10° NE
ATLAS 5 CENTAUR R/B 2.9 00:26:21 10° NNW 00:31:12 54° N 00:31:12 54° N
USA 267 4.2 00:32:22 10° NE 00:38:30 45° NNW 00:44:37 10° W
USA 234 4.3 01:15:12 34° WNW 01:15:12 34° WNW 01:18:59 10° WNW
ADEOS Rocket 3.8 01:08:45 10° NNE 01:14:09 50° NE 01:14:09 50° NE
Cosmos 1943 Rocket 3.7 01:10:48 10° NNW 01:13:38 30° NW 01:13:38 30° NW
Mayak 1.4 01:13:32 10° N 01:14:37 18° N 01:14:37 18° N
SeaSat 1 4.4 01:35:23 23° NW 01:35:23 23° NW 01:37:16 10° NNW
Cosmos 2369 Rocket 4.3 01:35:10 10° NW 01:37:01 18° WNW 01:37:01 18° WNW
CZ-4C R/B 4.4 02:11:58 16° WNW 02:14:23 20° NNW 02:18:54 10° NNE
Resurs 1-4 Rocket 4.1 02:28:53 10° NE 02:32:02 19° E 02:32:02 19° E
Meteor 2-4 Rocket 4.2 03:01:30 55° NNE 03:01:30 55° NNE 03:05:44 10° NNE
COSMOS 2406 4.1 03:13:29 41° NW 03:13:29 41° NW 03:18:15 10° NNE
Cosmos 2034 Rocket 3.9 03:17:52 79° NW 03:17:52 79° NW 03:23:52 10° N
Cosmos 2278 3.8 03:13:18 10° NNW 03:18:44 70° NE 03:18:44 70° NE
Cosmos 1980 Rocket 3.6 03:21:12 10° N 03:26:19 35° NE 03:31:25 10° ESE
Cosmos 1697 Rocket 3.1 03:24:15 10° NNW 03:29:54 61° ENE 03:31:12 48° ESE
Cosmos 1607 3.9 03:29:40 75° SE 03:29:55 76° ESE 03:36:26 10° NE
CZ-2D R/B 2.4 03:24:43 10° NNE 03:30:01 61° E 03:30:01 61° E
Cosmos 1092 Rocket 4.1 03:25:27 10° N 03:31:41 73° E 03:32:42 61° SE
Lacrosse 4 Rocket 2.5 03:30:00 10° NNW 03:33:35 45° NNE 03:33:35 45° NNE
Cosmos 2082 Rocket 2.3 03:35:02 66° ESE 03:35:02 66° ESE 03:40:36 10° NNE
SL-16 R/B 2.4 03:34:38 73° SSE 03:35:19 90° NW 03:41:38 10° NNW
Cosmos 1867 3.8 03:30:57 10° NNW 03:36:25 68° NE 03:37:35 53° ESE
Cosmos 1340 Rocket 4.3 03:40:35 34° N 03:40:35 34° N 03:42:55 10° N
MOZ.5/SAFIR/RUBIN 5/SL-8 4.2 03:40:15 58° ENE 03:40:21 58° ENE 03:45:01 10° N
Meteor 1-15 Rocket 4.2 03:36:07 10° N 03:42:06 86° W 03:42:20 82° SSW
ARIANE 5 R/B 3.1 03:37:56 10° NNE 03:43:04 50° E 03:43:38 48° ESE
Iridium 4 Rocket 3.6 03:47:03 55° NNE 03:47:03 55° NNE 03:50:38 10° N
SL-08 R/B 3.9 03:47:36 47° NW 03:47:36 47° NW 03:51:11 10° NNW
Cosmos 967 Rocket 4.3 03:40:10 10° NW 03:46:38 76° WSW 03:47:15 70° SSW
IRS-1C 4.0 03:42:07 10° NNE 03:47:30 87° ESE 03:47:36 85° SSE
ADEOS II 3.8 03:57:01 10° NE 04:01:24 26° E 04:04:46 15° SE
Okean 1-7 Rocket 4.0 04:03:00 54° ESE 04:03:22 56° E 04:07:47 10° NNE
Cosmos 1656 4.3 03:59:02 10° NW 04:03:11 40° WNW 04:03:11 40° WNW
IRS-1D 3.4 04:00:12 10° N 04:05:22 79° WNW 04:05:48 73° SW
Cosmos 1356 Rocket 4.0 04:05:50 49° E 04:05:51 49° E 04:09:45 10° NNE
CZ-2D R/B 4.3 04:03:55 10° NNE 04:07:48 42° E 04:08:19 40° ESE
ADEOS 4.2 04:02:58 10° NNE 04:08:04 49° E 04:09:55 34° SSE
AQUA 4.3 04:05:58 10° N 04:10:13 45° WNW 04:10:13 45° WNW
Cosmos 1544 3.8 04:07:22 10° N 04:10:41 53° ENE 04:10:41 53° ENE
NPP 4.2 04:07:10 10° N 04:12:11 40° WNW 04:12:25 40° WNW
Resurs 1-4 Rocket 2.2 04:07:36 10° N 04:12:45 56° WNW 04:13:07 55° W
Okean 2 4.2 04:15:55 41° NW 04:15:55 41° NW 04:19:01 10° N
Cosmos 1833 Rocket 2.8 04:14:17 51° W 04:15:04 55° WNW 04:20:38 10° NNE
Cosmos 2058 Rocket 4.4 04:13:30 10° N 04:17:39 38° ENE 04:21:28 12° SE
Helios 1A Rocket 2.9 04:14:29 10° NNE 04:18:40 77° ESE 04:18:53 74° SE
Cosmos 1634 Rocket 4.0 04:18:31 50° SW 04:20:02 66° W 04:26:17 10° N
Lacrosse 5 rocket 1.5 04:21:36 61° NW 04:21:40 62° NW 04:25:45 10° NE
Cosmos 1766 4.1 04:18:49 10° N 04:22:36 48° E 04:24:03 31° SE
Cosmos 1606 Rocket 3.4 04:24:53 10° N 04:29:13 89° E 04:30:10 54° S
H-2A R/B 4.1 04:26:37 10° NNW 04:29:28 23° NW 04:29:28 23° NW
Cosmos 2360 4.1 04:24:17 10° NNW 04:29:59 79° WSW 04:35:40 10° SSE
Cosmos 2228 3.4 04:30:28 10° N 04:34:44 62° E 04:37:29 21° SSE
Cosmos 2279 Rocket 3.9 04:32:47 33° SSW 04:35:48 82° W 04:42:06 10° N
Cosmos 371 Rocket 4.5 04:36:06 27° WNW 04:36:33 27° WNW 04:40:42 10° N
Cosmos 1892 Rocket 3.5 04:40:00 42° S 04:41:29 86° E 04:45:55 10° N
Cosmos 2026 Rocket 4.2 04:38:37 10° NNW 04:44:45 50° W 04:47:24 32° SW
SJ 16-02 4.1 04:41:33 10° NNE 04:44:50 20° ENE 04:48:06 10° ESE
Cosmos 1066 Rocket 4.4 04:44:17 39° SW 04:45:59 52° WNW 04:51:18 10° N
Meteor 1-21 4.4 04:47:14 18° S 04:51:29 74° E 04:57:07 10° NNE
ATLAS 3B R/B 3.4 04:47:02 17° S 04:52:26 50° ESE 04:59:05 10° NE
COSMOS 2487 3.2 04:52:33 36° WNW 04:52:33 36° WNW 04:55:46 10° N
Cosmos 1025 Rocket 4.3 04:53:05 24° WNW 04:53:05 24° WNW 04:56:31 10° NNW
Cosmos 2208 Rocket 4.3 04:51:46 35° WSW 04:53:39 53° WNW 04:58:49 10° NNE
Cosmos 1763 Rocket 3.6 04:53:31 25° SSW 04:56:37 80° ESE 05:01:57 10° NNE
Timation 2 Rocket 4.1 04:52:47 21° S 04:56:56 67° ESE 05:02:52 10° NNE
Cosmos 1898 Rocket 3.6 04:58:08 10° NNW 05:03:11 52° WSW 05:08:15 10° S
Cosmos 1733 4.5 05:00:10 10° N 05:03:52 42° ENE 05:07:34 10° SSE
Cosmos 2360 Rocket 4.1 05:02:45 10° N 05:07:48 32° NE 05:12:49 10° ESE
UNKNOWN OBJECT B 3.5 05:05:52 10° N 05:09:26 35° WNW 05:10:18 30° W
USA 215 3.3 05:03:02 10° NE 05:09:36 78° SE 05:14:17 21° SW
CZ-2D R/B 3.6 05:05:49 10° NNW 05:09:38 20° WNW 05:11:21 17° W
Cosmos 1980 Rocket 2.7 05:05:12 10° NW 05:10:17 36° WSW 05:15:16 10° S
Cosmos 1655 Rocket 4.3 05:04:51 10° NNW 05:10:54 47° W 05:16:05 14° SSW
Transit 2A Rocket 4.4 05:06:28 10° NW 05:11:01 77° WSW 05:15:18 10° SSE
Okean O Rocket 3.9 05:08:57 10° NE 05:12:27 23° E 05:15:55 10° SSE
Lacrosse 4 Rocket 3.8 05:09:41 10° WNW 05:09:50 11° WNW 05:09:50 11° WNW
Cosmos 1697 Rocket 4.0 05:09:21 10° NW 05:12:50 20° W 05:12:50 20° W
ATLAS CENTAUR R/B 4.3 05:10:11 10° N 05:13:29 21° NE 05:16:56 10° E
Cosmos 1937 Rocket 3.5 05:11:35 10° NNW 05:16:40 55° WSW 05:21:40 10° S
Cosmos 1470 3.8 05:14:45 10° N 05:18:39 49° ENE 05:22:30 10° SSE
Cosmos 2082 Rocket 3.7 05:16:53 16° W 05:19:36 22° NW 05:23:54 10° N
Cosmos 2266 Rocket 3.9 05:13:34 10° N 05:19:38 77° W 05:25:45 10° S
SL-16 R/B 4.1 05:19:42 14° W 05:19:43 14° W 05:22:56 10° WNW
SL-16 R/B 2.2 05:15:04 10° NNW 05:20:46 89° WSW 05:26:27 10° SSE
ARIANE 5 R/B 3.9 05:17:48 10° NNW 05:21:48 23° WNW 05:23:58 18° W
DNEPR-1 R/B 4.2 05:29:30 11° SSW 05:33:26 52° ESE 05:37:51 10° NE
Cosmos 990 Rocket 4.4 05:30:22 10° NW 05:35:05 37° WSW 05:39:48 10° SSW
Cosmos 2150 Rocket 4.2 05:31:07 10° NNW 05:36:25 52° WSW 05:41:41 10° S
Cosmos 2322 Rocket 2.1 05:32:06 10° NNW 05:37:43 69° WSW 05:43:16 10° SSE
Cosmos 1814 Rocket 4.3 05:34:05 16° SW 05:37:52 47° WNW 05:42:53 10° N
Aureole 2 Rocket 4.0 05:34:46 10° N 05:38:29 43° ENE 05:41:59 10° SE
Cosmos 1842 4.2 05:36:28 18° SW 05:38:38 30° WNW 05:42:12 10° NNW
Cosmos 292 Rocket 3.7 05:36:09 11° SSW 05:40:52 76° WNW 05:45:42 10° NNE
ADEOS II 2.6 05:36:20 10° N 05:41:14 41° WNW 05:45:42 12° SW
Cosmos 1707 3.1 05:38:15 10° S 05:42:04 65° E 05:45:56 10° NNE
Cosmos 2298 Rocket 4.5 05:37:49 10° NW 05:42:46 40° WSW 05:47:40 10° S
Cosmos 1953 2.3 05:38:50 10° NNW 05:42:54 69° W 05:46:56 10° S
USA 267 3.9 05:38:07 10° ESE 05:44:32 61° NNE 05:50:58 10° NW
PSLV R/B 3.7 05:43:40 10° NNE 05:47:34 89° WNW 05:51:22 10° SSW
PSLV R/B 3.6 05:44:26 10° N 05:48:36 59° WNW 05:52:43 10° SSW
Cosmos 372 Rocket 4.2 05:44:22 10° NNW 05:49:37 79° ENE 05:54:48 10° SSE
USA 238 DEB 3.8 05:43:52 12° SW 05:50:17 69° NW 05:57:16 10° NNE
USA 238 3.8 05:43:57 12° SW 05:50:23 70° NW 05:57:23 10° NNE
Meteor 1-31 Rocket 3.8 05:47:11 10° NNE 05:50:59 49° E 05:54:43 10° S
Cosmos 1812 Rocket 3.6 05:50:31 10° NNW 05:54:57 64° W 05:59:21 10° S
Cosmos 1378 3.3 05:54:20 10° SSW 05:58:00 55° W 06:01:43 10° N
CZ-4B R/B 3.8 05:54:41 10° NNE 06:00:16 64° ESE 06:05:41 10° S
Cosmos 1602 Rocket 4.0 05:56:43 10° SSW 06:00:49 42° WNW 06:04:57 10° N
Lacrosse 5 rocket 3.5 05:58:46 10° WNW 06:01:31 17° NNW 06:04:12 10° NNE
Cosmos 44 4.0 05:58:21 10° NW 06:03:12 38° WSW 06:08:08 10° S
CRYOSAT 2 4.3 06:01:50 10° S 06:06:40 75° W 06:11:33 10° N
Cosmos 1758 Rocket 4.1 06:02:29 10° S 06:06:45 63° E 06:11:04 10° NNE
Cosmos 1758 4.4 06:03:57 10° NNW 06:07:15 25° W 06:10:33 10° SW
Cosmos 841 Rocket 4.3 06:05:47 10° SW 06:10:27 34° WNW 06:15:11 10° N
BREEZE-M R/B 3.9 06:09:19 10° W 06:13:04 60° NNW 06:20:49 10° ENE
Cosmos 2322 3.9 06:10:51 10° NNW 06:16:37 81° ENE 06:22:20 10° SSE
